Weather History for Whiting Fld NAS, FL

Change the Weather History Date:

Sunday, October 6, 2013

  Actual Average Record
Temperature  
Mean Temperature 76 °F -  
Max Temperature 82 °F 79 °F 90 °F (2012)
Min Temperature 71 °F 61 °F 50 °F (2010)
Cooling Degree Days 11    
Growing Degree Days 26 (Base 50)    
Moisture  
Dew Point 70 °F    
Average Humidity 89    
Maximum Humidity 100    
Minimum Humidity 69    
Precipitation  
Precipitation 0.91 in - - ()
Sea Level Pressure  
Sea Level Pressure 29.86 in    
Wind  
Wind Speed 5 mph (ESE)    
Max Wind Speed 14 mph    
Max Gust Speed 23 mph    
Visibility 6 miles    
Events      
Averages and records for this station are not official NWS values.
T = Trace of Precipitation, MM = Missing Value Source: NWS Daily Summary

Daily Weather History Graph

Daily Weather History Graph

Search for Another Location

Airport:

Trip Planner

Search our weather history database for the weather conditions in past years. The results will help you decide how hot, cold, wet, or windy it might be!

Date:

Astronomy

Oct. 06, 2013 Rise Set
Actual Time 6:44 AM CDT 6:26 PM CDT
Civil Twilight 6:20 AM CDT 6:50 PM CDT
Nautical Twilight 5:52 AM CDT 7:18 PM CDT
Astronomical Twilight 5:24 AM CDT 7:46 PM CDT
Moon 8:19 AM CDT (10/6) 7:36 PM CDT (10/6)
Length of Visible Light 12h 30m
Length of Day
11h 41m
Waxing Crescent, 3% of the Moon is Illuminated
Oct 6
Waxing Crescent
Oct 11
First Quarter
Oct 18
Full
Oct 26
Last Quarter
Nov 3
New

Hourly Weather History & Observations

Time (CDT) Temp. Heat Index Dew Point Humidity Pressure Visibility Wind Dir Wind Speed Gust Speed Precip Events Conditions
12:09 AM 73.4 °F - 71.6 °F 94% 29.96 in 8.0 mi SE 3.5 mph - N/A   Mostly Cloudy
12:22 AM 73.4 °F - 71.6 °F 94% 29.96 in 6.0 mi SE 3.5 mph - N/A   Scattered Clouds
12:56 AM 73.9 °F - 70.0 °F 87% 29.91 in 7.0 mi Calm Calm - N/A   Clear
1:56 AM 71.1 °F - 68.0 °F 90% 29.90 in 2.0 mi Calm Calm - N/A   Partly Cloudy
2:03 AM 71.6 °F - 68.0 °F 88% 29.94 in 1.8 mi Calm Calm - N/A   Scattered Clouds
2:07 AM 71.6 °F - 68.0 °F 88% 29.94 in 3.0 mi Calm Calm - N/A   Scattered Clouds
2:48 AM 73.4 °F - 71.6 °F 94% 29.92 in 7.0 mi East 4.6 mph - N/A   Overcast
2:56 AM 73.9 °F - 71.1 °F 91% 29.87 in 8.0 mi East 4.6 mph - N/A   Mostly Cloudy
3:04 AM 73.4 °F - 71.6 °F 94% 29.91 in 8.0 mi East 3.5 mph - N/A   Mostly Cloudy
3:22 AM 73.4 °F - 71.6 °F 94% 29.91 in 8.0 mi East 3.5 mph - N/A   Mostly Cloudy
3:56 AM 73.9 °F - 71.1 °F 91% 29.87 in 8.0 mi East 3.5 mph - N/A   Overcast
4:56 AM 73.0 °F - 70.0 °F 90% 29.86 in 10.0 mi East 6.9 mph - N/A   Mostly Cloudy
5:56 AM 73.0 °F - 69.1 °F 87% 29.88 in 10.0 mi East 5.8 mph - N/A   Overcast
6:56 AM 72.0 °F - 68.0 °F 87% 29.88 in 8.0 mi East 10.4 mph - N/A   Overcast
7:56 AM 73.0 °F - 68.0 °F 84% 29.87 in 10.0 mi East 9.2 mph - N/A   Overcast
8:56 AM 73.0 °F - 68.0 °F 84% 29.87 in 10.0 mi East 5.8 mph - N/A   Clear
9:12 AM 73.4 °F - 69.8 °F 88% 29.92 in 10.0 mi ESE 5.8 mph - N/A   Mostly Cloudy
9:39 AM 73.4 °F - 69.8 °F 88% 29.92 in 10.0 mi ESE 6.9 mph - N/A   Mostly Cloudy
9:56 AM 75.0 °F - 70.0 °F 84% 29.88 in 10.0 mi ESE 5.8 mph - N/A   Mostly Cloudy
10:32 AM 78.8 °F - 71.6 °F 78% 29.92 in 10.0 mi ESE 6.9 mph - N/A   Mostly Cloudy
10:56 AM 81.0 °F 84.9 °F 71.1 °F 72% 29.86 in 10.0 mi SE 10.4 mph - N/A   Scattered Clouds
11:11 AM 80.6 °F 84.6 °F 71.6 °F 74% 29.90 in 10.0 mi SE 10.4 mph 17.3 mph N/A   Mostly Cloudy
11:38 AM 75.2 °F - 69.8 °F 83% 29.90 in 1.5 mi SW 13.8 mph - N/A   Haze
11:48 AM 75.2 °F - 69.8 °F 83% 29.89 in 2.0 mi SW 3.5 mph - N/A   Haze
11:56 AM 77.0 °F - 71.1 °F 82% 29.85 in 10.0 mi SW 4.6 mph - N/A   Overcast
12:56 PM 81.0 °F 84.4 °F 70.0 °F 69% 29.83 in 10.0 mi SSE 9.2 mph - N/A   Overcast
1:22 PM 75.2 °F - 71.6 °F 89% 29.88 in 2.5 mi SSW 12.7 mph 23.0 mph 0.01 in   Haze
1:27 PM 75.2 °F - 71.6 °F 89% 29.88 in 1.8 mi SW 9.2 mph - 0.03 in   Overcast
1:35 PM 75.2 °F - 71.6 °F 89% 29.88 in 2.5 mi SSW 5.8 mph - 0.04 in   Overcast
1:40 PM 75.2 °F - 71.6 °F 89% 29.87 in 4.0 mi South 8.1 mph - 0.04 in   Overcast
1:46 PM 75.2 °F - 71.6 °F 89% 29.87 in 6.0 mi SSE 9.2 mph - 0.04 in   Overcast
1:56 PM 73.9 °F - 71.1 °F 91% 29.83 in 4.0 mi SE 6.9 mph - 0.05 in   Overcast
2:14 PM 73.4 °F - 69.8 °F 88% 29.87 in 2.0 mi ESE 8.1 mph - 0.02 in   Overcast
2:21 PM 73.4 °F - 69.8 °F 88% 29.86 in 0.8 mi ESE 8.1 mph - 0.12 in   Overcast
2:31 PM 73.4 °F - 69.8 °F 88% 29.86 in 2.5 mi ESE 6.9 mph - 0.13 in   Overcast
2:38 PM 73.4 °F - 71.6 °F 94% 29.86 in 3.0 mi ESE 4.6 mph - 0.15 in   Overcast
2:41 PM 73.4 °F - 71.6 °F 94% 29.86 in 1.8 mi SE 5.8 mph - 0.17 in   Overcast
2:53 PM 73.4 °F - 71.6 °F 94% 29.85 in 0.8 mi ESE 6.9 mph - 0.32 in   Overcast
2:56 PM 73.0 °F - 71.1 °F 93% 29.81 in 1.0 mi Variable 5.8 mph - 0.33 in   Overcast
3:29 PM 73.4 °F - 71.6 °F 94% 29.85 in 2.5 mi ESE 5.8 mph - 0.18 in   Overcast
3:38 PM 73.4 °F - 71.6 °F 94% 29.85 in 1.5 mi East 5.8 mph - 0.24 in   Overcast
3:54 PM 73.4 °F - 71.6 °F 94% 29.84 in 3.0 mi East 6.9 mph - 0.32 in   Overcast
3:56 PM 73.0 °F - 71.1 °F 93% 29.80 in 4.0 mi East 8.1 mph - 0.32 in   Overcast
4:19 PM 71.6 °F - 71.6 °F 100% 29.84 in 5.0 mi SE 4.6 mph - 0.01 in   Mostly Cloudy
4:24 PM 73.4 °F - 69.8 °F 88% 29.84 in 5.0 mi ESE 5.8 mph - 0.01 in   Overcast
4:34 PM 73.4 °F - 69.8 °F 88% 29.84 in 2.5 mi SE 6.9 mph - 0.03 in   Overcast
4:42 PM 73.4 °F - 69.8 °F 88% 29.83 in 2.0 mi ESE 8.1 mph - 0.06 in   Overcast
4:56 PM 73.0 °F - 70.0 °F 90% 29.78 in 2.0 mi East 13.8 mph - 0.14 in   Overcast
5:07 PM 71.6 °F - 69.8 °F 94% 29.82 in 3.0 mi ESE 12.7 mph - 0.04 in   Overcast
5:42 PM 71.6 °F - 69.8 °F 94% 29.82 in 10.0 mi East 8.1 mph - 0.07 in   Scattered Clouds
5:56 PM 72.0 °F - 70.0 °F 93% 29.78 in 10.0 mi East 5.8 mph - 0.07 in   Partly Cloudy
6:56 PM 72.0 °F - 71.1 °F 97% 29.79 in 10.0 mi East 5.8 mph - N/A   Mostly Cloudy
7:56 PM 72.0 °F - 70.0 °F 93% 29.79 in 10.0 mi Calm Calm - N/A   Clear
8:56 PM 71.1 °F - 68.0 °F 90% 29.80 in 10.0 mi East 4.6 mph - N/A   Clear
9:56 PM 71.1 °F - 68.0 °F 90% 29.81 in 9.0 mi Calm Calm - N/A   Scattered Clouds
10:07 PM 71.6 °F - 69.8 °F 94% 29.86 in 9.0 mi Calm Calm - N/A   Mostly Cloudy
10:16 PM 71.6 °F - 69.8 °F 94% 29.85 in 9.0 mi Calm Calm - N/A   Mostly Cloudy
10:56 PM 71.1 °F - 70.0 °F 96% 29.81 in 10.0 mi North 3.5 mph - N/A   Overcast
11:05 PM 71.6 °F - 69.8 °F 94% 29.85 in 10.0 mi Calm Calm - N/A   Overcast
11:28 PM 71.6 °F - 69.8 °F 94% 29.85 in 10.0 mi NW 4.6 mph - N/A   Overcast
11:56 PM 72.0 °F - 69.1 °F 91% 29.81 in 8.0 mi NNW 3.5 mph - N/A   Overcast